This is the latest recevied weather packets stored in our database for station/object VE9LJW. If no packets are shown the sender has not sent any weather packets the latest 10 day(s).
| Time | Temp. | Humidity | Pressure | Rain* | Wind** | Luminosity | Snow |
|---|---|---|---|---|---|---|---|
| 1777497600 | 13.89° C | 86% | 1014.8 hPa | 0 mm | - | 152 W/m² | - |
| 1777497297 | 13.33° C | 88% | 1015 hPa | 0 mm | - | 165 W/m² | - |
| 1777496993 | 13.89° C | 87% | 1015.4 hPa | 0 mm | - | 104 W/m² | - |
| 1777496690 | 13.33° C | 87% | 1015.3 hPa | 0 mm | - | 98 W/m² | - |
| 1777496386 | 13.89° C | 87% | 1015.1 hPa | 0 mm | - | 97 W/m² | - |
| 1777496083 | 13.33° C | 86% | 1014.9 hPa | 0 mm | - | 104 W/m² | - |
| 1777495778 | 13.89° C | 86% | 1014.9 hPa | 0 mm | - | 91 W/m² | - |
| 1777495475 | 13.89° C | 85% | 1015 hPa | 0 mm | - | 114 W/m² | - |
| 1777495171 | 13.89° C | 85% | 1015.1 hPa | 0 mm | - | 157 W/m² | - |
| 1777494869 | 13.33° C | 87% | 1015 hPa | 0 mm | - | 181 W/m² | - |
| 1777494566 | 13.33° C | 86% | 1014.9 hPa | 0 mm | - | 207 W/m² | - |
| 1777494263 | 13.33° C | 87% | 1014.9 hPa | 0 mm | - | 166 W/m² | - |
| 1777493960 | 13.33° C | 85% | 1014.9 hPa | 0 mm | - | 239 W/m² | - |
| 1777493658 | 13.33° C | 83% | 1014.8 hPa | 0 mm | - | 220 W/m² | - |
| 1777493355 | 13.33° C | 85% | 1014.8 hPa | 0 mm | - | 250 W/m² | - |
| 1777493051 | 13.33° C | 86% | 1014.7 hPa | 0 mm | - | 279 W/m² | - |
| 1777492748 | 13.33° C | 86% | 1014.7 hPa | 0 mm | - | 256 W/m² | - |
| 1777492443 | 13.33° C | 85% | 1014.8 hPa | 0 mm | - | 242 W/m² | - |
| 1777492141 | 13.33° C | 86% | 1014.7 hPa | 0 mm | - | 257 W/m² | - |
| 1777491837 | 12.78° C | 87% | 1014.9 hPa | 0 mm | - | 405 W/m² | - |
| 1777491534 | 12.78° C | 86% | 1015.1 hPa | 0 mm | - | 404 W/m² | - |
| 1777491231 | 12.22° C | 88% | 1015.1 hPa | 0 mm | - | 340 W/m² | - |
| 1777490927 | 12.78° C | 88% | 1015 hPa | 0 mm | - | 263 W/m² | - |
| 1777490623 | 12.22° C | 88% | 1015.2 hPa | 0 mm | - | 328 W/m² | - |
| 1777490319 | 12.22° C | 87% | 1015.2 hPa | 0 mm | - | 357 W/m² | - |
* Rain latest hour (hover to see other rain measurements)
** Current wind speed in m/s (hover to see current wind gust speed)